Regional Weather Roundup
Issued by NWS Wakefield, VA

Home | Current Version | Previous Version | Text Only | Print | Product List | Glossary On
Versions: 1 2 3 4 5 6 7 8 9 10 11 12 13 14 15 16 17 18 19 20 21 22 23 24 25 26 27
000
ASUS41 KAKQ 270215
RWRAKQ

REGIONAL WEATHER ROUNDUP
NATIONAL WEATHER SERVICE WAKEFIELD VA
1000 PM EDT MON JUN 26 2017

Note: "fair" indicates few or no clouds below 12,000 feet with no
significant weather and/or obstructions to visibility. * = Denotes
station may not report precipitation (e.g., rain,snow,etc.),
thunder or fog.

VAZ042-051-052>054-056-270300-
NORTHERN VIRGINIA

CITY           SKY/WX    TMP DP  RH WIND       PRES   REMARKS
WASH NATIONAL  MOCLDY    76  58  53 S13       29.99R
DULLES         MOCLDY    74  51  44 S5        29.99R
FORT BELVOIR   CLOUDY    72  59  63 SE6       29.99R
QUANTICO       CLEAR     77  55  46 S6        29.99S
FREDERICKSBRG* CLEAR     68  58  68 CALM      29.99R
STAFFORD*      CLEAR     62  60  93 CALM      30.03S
WARRENTON      CLEAR     66  53  64 CALM      29.99R
CULPEPER*      PTCLDY    66  59  79 CALM      30.01R
MANASSAS*      PTCLDY    70  56  61 S5        30.00R
LEESBURG*      CLOUDY    72  59  64 CALM      30.01R
WINCHESTER     PTCLDY    64  46  52 NW6       30.02R
FRONT ROYAL*   CLOUDY    70  50  49 CALM      30.01R
LURAY*         CLEAR     68  50  52 NE7       30.02R
$$

VAZ048-049-060>072-079>083-270300-
CENTRAL AND SOUTH CENTRAL VIRGINIA

CITY           SKY/WX    TMP DP  RH WIND       PRES   REMARKS
RICHMOND       PTCLDY    68  57  68 SW6       30.01R
CHESTERFIELD*  FAIR      70  57  63 CALM      30.02S
PETERSBURG*    CLEAR     61  58  91 CALM      30.03R
HANOVER        CLEAR     65  56  72 CALM      30.02R
TAPPAHANNOCK*  CLEAR     64  63  94 CALM      30.01S
QUINTON*       FAIR      66  63  89 CALM      30.00S
CHARLOTTSVILLE CLEAR     72  54  53 CALM      30.01R
GORDONSVILLE*  CLEAR     63  57  81 CALM      30.00R
ORANGE*        CLEAR     63  55  77 CALM      30.01R
LOUISA*        CLEAR     63  57  82 CALM      30.00R
BUMPASS*       FAIR      63  58  83 SW6       30.00S
FARMVILLE*     PTCLDY    65  55  68 CALM      30.01S
CREWE*         FAIR      64  60  87 CALM      30.02S
FORT PICKETT*  FAIR      65  56  72 S3        30.03R
CHASE CITY*    FAIR      67  64  90 CALM      30.04R
CLARKSVILLE*   FAIR      68  66  94 CALM      30.03R
SOUTH HILL*    PTCLDY    66  64  93 CALM      30.09R
LAWRENCEVILLE* FAIR      65  58  76 CALM      30.03R
EMPORIA*       CLEAR     61  57  88 CALM      30.04S
$$

VAZ088>098-270300-
SOUTHEAST VIRGINIA

CITY           SKY/WX    TMP DP  RH WIND       PRES   REMARKS
NORFOLK        PTCLDY    74  57  55 S7        30.02R
VIRGINIA BEACH PTCLDY    71  59  65 SE6       30.02R
NORFOLK NAVAL  PTCLDY    74  54  49 S7        30.04R
WEST POINT*    PTCLDY    70  59  69 SE5       30.02S
SALUDA*        FAIR      72  62  70 S5        30.01S
NEWPORT NEWS   PTCLDY    75  54  47 S9        30.02R
LANGLEY AFB    MOCLDY    74  55  50 SW5       30.02R
FORT EUSTIS    PTCLDY    75  58  55 S8        30.00R
WILLIAMSBURG*  CLEAR     72  64  78 CALM      30.02S
HR EXEC AP*    FAIR      70  55  60 SE3       30.01R
FRANKLIN*      CLEAR     66  61  82 CALM      30.03R
US460-WAKEFLD  PTCLDY    66  63  90 CALM      30.02R
$$

VAZ020-022-025-037-045-270300-
WEST CENTRAL AND SOUTHWEST VIRGINIA

CITY           SKY/WX    TMP DP  RH WIND       PRES   REMARKS
STAUNTON*      CLEAR     64  48  56 W3        30.06R
WAYNESBORO*    CLEAR     63  52  67 SW5       30.06R
HOT SPRINGS VA CLEAR     57  36  44 NW7       30.15R
LYNCHBURG      MOCLDY    66  56  70 SW3       30.04R
DANVILLE       PTCLDY    65  60  84 SW3       30.04R
SOUTH BOSTON*  FAIR      67  61  80 CALM      30.04R
MARTINSVILLE   CLOUDY    65  62  90 CALM      30.08R
ROANOKE        PTCLDY    68  51  54 NW8       30.08R
BLACKSBURG     PTCLDY    62  52  70 CALM      30.13R
DUBLIN*        PTCLDY    67  44  43 CALM      30.12R
MARION*        CLOUDY    66  48  52 CALM      30.16R
HILLSVILLE*    CLOUDY    65  48  53 CALM      30.12R
RICHLANDS*     FAIR      63  22  21 CALM      30.15R
WISE*          CLEAR     61  48  63 CALM      30.16S
ABINGDON*      CLOUDY    68  54  60 CALM      30.12R
$$

MDZ021>025-VAZ099-100-270300-
SOUTHERN MARYLAND AND THE DELMARVA PENINSULA

CITY           SKY/WX    TMP DP  RH WIND       PRES   REMARKS
PATUXENT RIVER PTCLDY    73  61  65 S7        30.00S
BAY BRIDGE APT CLEAR     75  59  57 S6        29.99S
LEONARDTOWN    CLEAR     68  59  73 CALM      30.02S
DOVER          CLEAR     68  61  76 SE5       29.99S
GEORGETOWN     PTCLDY    70  57  63 S3        30.02R
EASTON         CLEAR     71  55  57 S5        30.04S
CAMBRIDGE      CLEAR     68  59  73 CALM      30.01R
SALISBURY      MOCLDY    68  58  70 S6        30.02R
OCEAN CITY     PTCLDY    72  60  66 SW8       30.03R
WALLOPS ISLAND CLOUDY    70  65  84 S6        30.03R
ACCOMACK*      PTCLDY    70  61  74 SE7       30.02S
$$

NCZ012>017-030>032-270300-
NORTH CENTRAL AND EASTERN NORTH CAROLINA

CITY           SKY/WX    TMP DP  RH WIND       PRES   REMARKS
ROANOKE RAPIDS FAIR      64  61  88 CALM      30.03S
RALEIGH        CLOUDY    71  61  70 CALM      30.04S
ELIZABETH CITY CLEAR     74  58  57 S6        30.04R
AHOSKIE*         N/A     66  64  94 CALM      30.04R
EDENTON*       CLEAR     76  61  58 CALM      30.04R
CURRITUCK*     CLEAR     71  61  71 CALM      30.04R
KILL DEVIL HLS CLEAR     71  64  77 SE3       30.02S
MANTEO         CLEAR     70  60  69 SE3       30.04R
CAPE HATTERAS  CLEAR     69  63  81 E3        30.03
TARBORO*       NOT AVBL
GOLDSBORO      CLEAR     71  62  74 CALM      30.02R
WASHINGTON     CLEAR    N/A N/A N/A CALM      30.03S
GREENVILLE     CLEAR     72  63  73 CALM      30.05R
NEW BERN       CLEAR     70  68  93 CALM      30.05R
WILMINGTON     CLEAR     72  66  81 CALM      30.04R
$$

VAZ048-270300-
ELSEWHERE

CITY           SKY/WX    TMP DP  RH WIND       PRES   REMARKS
HARRISBURG PA  LGT RAIN  64  61  90 N5        30.00R
BALTIMORE      MOCLDY    73  56  54 SE3       29.98S
ANNAPOLIS      CLEAR     72  62  71 S8        29.98F
ANDREWS AFB    MOCLDY    67  56  65 S9        29.99R
PHILADELPHIA   CLEAR     73  52  47 S5        30.00R
HENDERSON NC   CLOUDY    67  59  74 CALM      30.04S
GREENSBORO     PTCLDY    73  58  59 SW3       30.05R
ROCKY MOUNT    PTCLDY    71  64  78 CALM      30.03S
$$

VAZ100-270300-
MARINE

STATION/POSITION TIME  TEMP    WIND        PRES    WAVE   SWELL
                       AIR SEA DIR/SP/G            HT/PER HT/PER
                 (UTC) (F)     (DEG/KT/KT) (MB)    (FT/S) (FT/S)
BRANDYWINE LGT   0142   69     180/ 12/ 13 1016.6R
CAPE MAY NJ      0142   68 69  160/  7/  9 1016.1R
LEWES DE         0142   73 71  190/  4/  5 1016.3R
15NM E FENWICK I 0150   71 68  180/  8/ 10 1016.9R   1/ 8   2/ 8
OCEAN-CITY-INLET 0142   71 70  220/  9/ 10 1016.9R
WACHAPREAGUE VA  0142   74 79  150/  9/ 11 1016.3S
THOMAS POINT MD  0200   77 78  170/ 17/ 19   N/A
GOOSES REEF MD   0150   78     220/ 12/ 14 1016.4R
COVE POINT MD    0142   77     180/ 10/ 12 1016.5R
SOLOMONS ISLAND  0142   76 80  170/  8/  9   N/A
BISHOPS HEAD MD  0142   78 83  170/ 15/ 16 1016.0S
PINEY POINT MD   0136          210/ 13/ 15   N/A
POTOMAC MD       0150   77     210/ 12/ 14 1015.2R
CAMBRIDGE MD     0142   74 82              1016.8R
LEWISETTA VA     0142   75 80  210/  6/  7 1015.9R
RAPPAHANNOCK LGT 0136          150/ 15/ 17 1016.8R
STINGRAY PT      0150   77     200/ 16/ 17 1016.1R
YORK RVR RNG VA  0142   77     180/ 17/ 19 1016.4R
YORKTOWN VA      0142   75 80  180/  9/ 11 1015.9R
JAMESTOWN VA     0150   76     220/  6/  6   N/A
DOMINION TERM VA 0142   77     150/ 13/ 15 1016.3R
KIPTOPEKE VA     0142      77  150/  9/ 11   N/A
CHES BAY BRIDGE  0142   74 75  170/ 10/ 13 1016.5R
CAPE HENRY VA    0142   73     160/  8/ 12   N/A
WILLOUBY STN VA  0142   76     160/ 11/ 12 1016.2R
S CRANEY ISL VA  0142   76     150/  9/ 12 1016.3R
CAPE HENRY BUOY  0130      73                N/A     1/ 8
1ST LANDING BUOY 0150   75                 1016.6R
CAPE CHARLES BUO 0151      71                N/A     1/ 8
64NM E OF VA BCH 0150   74 75   70/  4/  4 1017.4R   2/ 8   2/ 8
DUCK PIER NC     0142   73 72  130/  5/  6 1016.5S
44100 DUCK FRF   0105      72                N/A     1/ 8
OREGON INLET NC  0142   73 80   90/  3/  4 1016.9R
HATTERAS NC      0142   75 79  110/  3/  3 1016.7S
DIAMOND SHLS NC  0150   78 81  360/  4/  6 1016.7R   2/ 8   2/ 8
CAPE LOOKOUT NC  0200   76      CALM  /  1 1016.8R
$$




USA.gov is the U.S. government's official web portal to all federal, state and local government web resources and services.